Regional Weather Roundup
Issued by NWS Charleston, SC

Current Version | Previous Version | Text Only | Print | Product List | Glossary Off
Versions: 1 2 3 4 5 6 7 8 9 10 11 12 13 14 15 16 17 18 19 20 21 22 23 24 25 26 27 28 29 30 31 32 33 34 35 36 37 38 39 40 41 42 43 44 45 46 47 48 49 50

000
ASUS42 KCHS 251926
RWRCHS

REGIONAL WEATHER ROUNDUP
NATIONAL WEATHER SERVICE CHARLESTON SC
200 PM EST SAT FEB 25 2017

NOTE: "FAIR" INDICATES FEW OR NO CLOUDS BELOW 12,000 FEET WITH NO
SIGNIFICANT WEATHER AND/OR OBSTRUCTIONS TO VISIBILITY.

NOT ALL STATIONS ARE QUALITY CONTROLLED. USE DATA WITH CAUTION...
ESPECIALLY DEWPOINT OBSERVATIONS.

SCZ027-030-031-034>040-042>050-252000-
...SOUTHEAST SOUTH CAROLINA...

CITY           SKY/WX    TMP DP  RH WIND       PRES   REMARKS
N CHARLESTON   MOSUNNY   80  54  40 W23G30    29.73F
WATERFRONT PRK   N/A     72  63  73 SW13      29.73F
MOUNT PLEASANT FAIR      77  63  61 S14G21    29.73F
JOHNS ISLAND   FAIR      73  63  68 S13G21    29.75F
PINOPOLIS        N/A     72  59  64 W20       29.66F
MONCKS CORNER  FAIR      79  52  38 W12G20    29.72F
SUMMERVILLE    FAIR      79  55  44 SW17G24   29.74F
BEAUFORT MCAS  MOSUNNY   79  59  50 W20       29.77F
BEAUFORT ARPT  MOCLDY    79  59  50 W21       29.77S
HILTON HEAD IS MOSUNNY   77  59  53 SW14G24   29.79F
WALTERBORO     PTCLDY    75  57  53 W14G25    29.76S
ALLENDALE      MOCLDY    77  59  53 W9G17     29.75F

...SOUTHERN MIDLANDS AND PEE DEE...

CITY           SKY/WX    TMP DP  RH WIND       PRES   REMARKS
GEORGETOWN     MOCLDY    79  54  41 W16G22    29.72S
KINGSTREE      MOCLDY    75  54  46 SW13G21   29.70F
ORANGEBURG     MOSUNNY   77  57  50 W22G28    29.73F
BARNWELL       FAIR      79  61  53 SW14      29.74F
AIKEN          FAIR      75  37  25 W23G29    29.77S
MANNING        FAIR      75  55  50 MISG      29.72S
COLUMBIA       MOSUNNY   76  55  48 W17G30    29.70F
SUMTER         MOSUNNY   76  56  50 SW20G25   29.68F
FLORENCE       PTSUNNY   76  57  51 SW18G25   29.68F
MYRTLE BEACH   MOSUNNY   72  63  73 S14       29.71F
N MYRTLE BEACH SUNNY     67  61  81 SW17      29.70F

$$

GAZ063-065-086>088-099>101-113>116-118-119-134>141-150-252000-
...SOUTHEAST GEORGIA...

CITY           SKY/WX    TMP DP  RH WIND       PRES   REMARKS
SAVANNAH ARPT  PTSUNNY   78  57  48 W18       29.79F
HUNTER AAF     SUNNY     79  64  61 W16G23    29.77F
FORT STEWART   MOSUNNY   76  60  57 W9G20     29.78F
STATESBORO     PTSUNNY   76  62  60 W10       29.78F
SYLVANIA       MOCLDY   N/A N/A N/A W9        29.78F
CLAXTON        MOCLDY    77  77 100 SW9       29.79F

...CSRA...CENTRAL AND FAR SOUTHEAST GEORGIA...

CITY           SKY/WX    TMP DP  RH WIND       PRES   REMARKS
THOMSON        SUNNY     76  37  25 W14G23    29.81F
AUGUSTA-BUSH   SUNNY     80  40  23 W20G28    29.73F
AUGUSTA-DANIEL SUNNY     76  45  33 W9G21     29.76F
SWAINSBORO     FAIR      77  41  27 W13G24    29.80F
VIDALIA        MOSUNNY   79  57  47 W13G23    29.81F
EASTMAN        FAIR     N/A N/A N/A W12G18    29.86S
HAZLEHURST     FAIR      78  55  44 W9G18     29.81F
ALMA           PTSUNNY   78  60  53 SW14G21   29.82F
WAYCROSS       MOSUNNY   80  64  57 W12G18    29.82F
JESUP          MOCLDY    79  59  50 W9G16     29.82F
BAXLEY         CLOUDY    77  63  61 W12G20    29.82S
BRUNSWICK      MOSUNNY   77  63  61 W15G23    29.84F
SAINT SIMONS   MOSUNNY   77  58  51 W13G28    29.83S

$$

SCZ027-028-034-036>038-045-046-048>050-GAZ119-141-252000-
...LAKE AND SUPPLEMENTAL COASTAL OBSERVATIONS...

STATION/POSITION TIME  TEMP    WIND        PRES    WAVE   SWELL
                       AIR SEA DIR/SP/G            HT/PER HT/PER/DIR
                 (UTC) (F)     (DEG/KT/KT) (MB)    (FT/S) (FT/S/D)
WINYAH BAY       1845   75     190/ 12     1006.0F
LAKE MURRAY      1850   73     250/ 19/ 25 1005.1F
ACE BASIN NERRS  1830   77     240/  8     1008.0S
FORT PULASKI     1900   75 63  270/ 13/ 18 1008.8
SAPELO ISLAND    1900   75     270/ 15     1010.0

$$

ANZ835-935-AMZ111-154-330-350-352-354-370-450-454-472-252000-
...C-MAN AND BUOY OBSERVATIONS...

STATION/POSITION TIME  TEMP    WIND        PRES    WAVE   SWELL
                       AIR SEA DIR/SP/G            HT/PER HT/PER/DIR
                 (UTC) (F)     (DEG/KT/KT) (MB)    (FT/S) (FT/S/D)
BUOY 41004       1850   69 71  220/ 17/ 19 1007.6F   6/10   5/120/10
BUOY 41008       1850   65 63  190/ 14/ 16 1009.1F   3/11   3/ 70/11
FOLLY BEACH CMAN 1900   66     220/ 14/ 17 1008.3F
CAPERS NEARSHORE 1908   62 62  220/ 16/ 19 1007.0F
FRIPP NEARSHORE  1908   65 63  220/ 12/ 16 1008.3F


STATION/POSITION TIME  TEMP    WIND        PRES    WAVE   SWELL
                       AIR SEA DIR/SP/G            HT/PER HT/PER/DIR
                 (UTC) (F)     (DEG/KT/KT) (MB)    (FT/S) (FT/S/D)
5E ST. MARYS GA  1900      67                N/A     3/11   2/100/11
FRYING PAN BUOY  1910   71 72  210/ 17/ 23 1006.4
BUOY 41025       1850   71 76  220/ 14/ 17 1005.7F   7/10   7/120/10
CAPE LOOKOUT NC  1900   70     210/ 12/ 19 1005.6F
BUOY 41002       1850   71 71  260/  8/ 12 1009.5F   8/10   8/100/10
BUOY 41010       NOT AVBL
ST AUGUSTINE FL  1900   78 67  260/ 10/ 13 1011.4F


$$




USA.gov is the U.S. government's official web portal to all federal, state and local government web resources and services.